• Join FlightAware (Why Join?)
  • Login
  • US Flag 
03:42AM EST


 

Airport Tracker/Info


-or-


 

Live Flight TrackerFlight Track Log ✈ DAL6246 ✈ 02-May-2013 ✈ KLGA - KCHO

Flight Track Log - Related Links

Times and Time Zones

All times are in EDT time to prevent confusion due to time zone crossing. See the DAL6246 flight status page for this flight to view local times or setup timezone preferences in your user account.

Time Position Orientation Groundspeed Altitude Reporting Facility
EDT Latitude Longitude Course Direction KTS MPH feet Rate Location/Type
08:18PM 40.7500 -73.8000 270° West 201 231 2,200  Level New York TRACON
08:19PM 40.8167 -73.7833 11° North 242 278 5,100 2,800 Climbing New York TRACON
08:20PM 40.8500 -73.8667 298° West 276 318 7,800 2,150 Climbing New York TRACON
08:21PM 40.8500 -73.9667 270° West 309 356 9,400 2,033 Climbing New York TRACON
08:22PM 40.8333 -74.0833 259° West 323 372 11,900 2,296 Climbing New York TRACON
08:23PM 40.5333 -74.5985 270° West  Level FlightAware Approximate
08:23PM 40.8000 -74.2000 249° West 357 411 13,800  Level New York TRACON
08:25PM 40.6772 -74.4514 237° Southwest 375 432 17,000 980 Climbing New York Center
08:26PM 40.6214 -74.5661 237° Southwest 375 432 17,100 689 Climbing New York Center
08:27PM 40.5664 -74.6586 232° Southwest 375 432 18,400 1,525 Climbing New York Center
08:28PM 40.4894 -74.7769 229° Southwest 380 437 20,100 1,576 Climbing New York Center
08:29PM 40.4189 -74.8928 231° Southwest 399 459 21,500 1,525 Climbing New York Center
08:30PM 40.3417 -75.0108 229° Southwest 414 476 23,200 1,835 Climbing New York Center
08:31PM 40.2686 -75.1286 231° Southwest 427 491 25,200 1,424 Climbing New York Center
08:32PM 40.1933 -75.2489 231° Southwest 427 491 26,000 407 Climbing New York Center
08:33PM 40.1200 -75.3636 230° Southwest 432 497 26,000  Level New York Center
08:34PM 40.0533 -75.4678 230° Southwest 426 490 26,000  Level New York Center
08:35PM 39.9822 -75.5769 230° Southwest 421 484 26,000  Level New York Center
08:36PM 39.9131 -75.6883 231° Southwest 414 476 26,000  Level New York Center
08:37PM 39.8439 -75.7972 230° Southwest 409 471 26,000  Level New York Center
08:38PM 39.7722 -75.9081 230° Southwest 409 471 26,000 -198 Level New York Center
08:39PM 39.7028 -76.0164 230° Southwest 409 471 25,600 -716 Descending New York Center
08:40PM 39.6186 -76.1572 232° Southwest 406 467 24,400 -1,091 Descending Washington Center
08:41PM 39.5450 -76.2644 228° Southwest 411 473 23,200 -1,210 Descending Washington Center
08:42PM 39.4756 -76.3739 231° Southwest 400 460 22,000 -576 Descending Washington Center
08:43PM 39.3833 -76.5000 227° Southwest 381 438 22,000  Level Potomac TRACON
08:44PM 39.3167 -76.6167 234° Southwest 379 436 22,000  Level Potomac TRACON
08:45PM 39.2500 -76.7167 229° Southwest 376 433 22,000  Level Potomac TRACON
08:46PM 39.1833 -76.8333 234° Southwest 375 432 22,000  Level Potomac TRACON
08:47PM 39.1167 -76.9167 224° Southwest 377 434 22,000 -53 Level Potomac TRACON
08:48PM 39.0500 -77.0167 229° Southwest 376 433 21,900 -550 Descending Potomac TRACON
08:49PM 38.9833 -77.1167 229° Southwest 393 452 20,900 -651 Descending Potomac TRACON
08:51PM 38.8267 -77.2597 215° Southwest 403 464 20,000 -545 Descending Washington Center
08:52PM 38.7322 -77.3028 200° South 385 443 19,300 -857 Descending Washington Center
08:53PM 38.6358 -77.3511 201° Southwest 364 419 18,300 -807 Descending Washington Center
08:54PM 38.5433 -77.4047 204° Southwest 369 425 17,700 -885 Descending Washington Center
08:55PM 38.4772 -77.4986 228° Southwest 360 414 16,500 -1,500 Descending Washington Center
08:56PM 38.4067 -77.6000 228° Southwest 355 409 14,700 -1,815 Descending Washington Center
08:57PM 38.3425 -77.6911 228° Southwest 355 409 12,900 -1,361 Descending Washington Center
08:58PM 38.2828 -77.7739 227° Southwest 343 395 12,000 -1,000 Descending Washington Center
08:59PM 38.2269 -77.8542 228° Southwest 328 377 10,900 -984 Descending Washington Center
09:00PM 38.1753 -77.9372 232° Southwest 317 365 10,000 -807 Descending Washington Center
09:01PM 38.1628 -78.0397 261° West 295 339 9,300 -1,169 Descending Washington Center
09:02PM 38.1608 -78.1428 269° West 290 334 7,700 -1,587 Descending Washington Center
09:03PM 38.1422 -78.2239 254° West 285 328 6,100 -1,488 Descending Washington Center
09:04PM 38.1153 -78.3103 248° West 255 293 4,700 -1,488 Descending Washington Center
09:05PM 38.0931 -78.3753 247° West 227 261 3,100 -1,250 Descending Washington Center
09:06PM 38.0769 -78.4381 252° West 192 221 2,200 -800 Descending Washington Center
09:07PM 38.0906 -78.4808 292° West 134 154 1,500 -706 Descending Washington Center
09:08PM 38.1264 -78.4583 26° Northeast 97 112 800 -724 Descending Washington Center
09:10PM 38.1333 -78.4500 38° Northeast  Level FlightAware Approximate
09:17PM 38.1386 -78.4529 38° Northeast  Level Estimated
09:18PM 38.1333 -78.4500 38° Northeast  Level FlightAware Approximate
09:19PM 38.1386 -78.4529 38° Northeast  Level Estimated
09:20PM 38.1333 -78.4500 38° Northeast  Level FlightAware Approximate
09:21PM 38.1386 -78.4529 38° Northeast  Level Estimated
09:22PM 38.1333 -78.4500 38° Northeast  Level FlightAware Approximate
09:23PM 38.1386 -78.4529 38° Northeast  Level Estimated
09:24PM 38.1333 -78.4500 38° Northeast  Level FlightAware Approximate